Find Starlink 34809

NORAD ID: 65069 Int'l Des: 2025-165 Owner: SPXS Country: US Constellation: starlink operational
LEOCIRCULARRETROGRADESSO

現在のビュー

3D地球を読み込み中...

About Starlink 34809

Starlink 34809 (NORAD 65069) is a starlink constellation satellite (v2 mini) launched Jul 31, 2025 by SPXS of US. It operates in LEO, CIRCULAR, RETROGRADE, SSO orbit with a mass of 575.00 kg.

次回通過

Passes for default location (London). Set your location on the main map for personalized predictions.

高度履歴

Loading altitude history...

軌道要素

1 65069U 25165P 26263.16670139 .00043262 00000-0 13359-2 0 9997
2 65069 97.2857 334.3302 0001689 83.7890 149.3970 15.33417170 5777
Epoch: Sep 20, 2026 • Age: 12 hours

現在のステータス

高度 477.9 km
遠地点 / 近地点 N/A
速度 7.63 km/s
衛星直下点 82.74°N, 9.99°E
打ち上げ日 Jul 31, 2025
運用期間 1.1 years
タイプ internet

技術仕様

分類 Payload
質量 575.00 kg
乾燥質量 530.00 kg
長さ 0.30 m
スパン 29.00 m
形状 ? Box + pan
製造者 SPXS
バスタイプ Starlink V2MO
フェーズステータス In Orbit
所有者/国 SPXS/US

Most Searched